Weather History for Kremmling, CO

Change the Weather History Date:

Thursday, December 29, 2011

  Actual Average (KEGE) Record (KEGE)
Temperature  
Mean Temperature 40 °F -  
Max Temperature 50 °F 30 °F 52 °F (1965)
Min Temperature 30 °F 2 °F -25 °F (1954)
Degree Days  
Heating Degree Days 25    
Moisture  
Dew Point 18 °F    
Average Humidity 45    
Maximum Humidity 75    
Minimum Humidity 25    
Precipitation  
Precipitation 0.00 in - - ()
Sea Level Pressure  
Sea Level Pressure 30.05 in    
Wind  
Wind Speed 13 mph (West)    
Max Wind Speed 30 mph    
Max Gust Speed 46 mph    
Visibility 10 miles    
Events Snow    
Averages and records for this station are not official NWS values.
T = Trace of Precipitation, MM = Missing Value Source: NWS Daily Summary

Daily Weather History Graph

Daily Weather History Graph

Search for Another Location

Airport:

Trip Planner

Search our weather history database for the weather conditions in past years. The results will help you decide how hot, cold, wet, or windy it might be!

Date:

Astronomy

Dec. 29, 2011 Rise Set
Actual Time 7:26 AM MST 4:48 PM MST
Civil Twilight 6:56 AM MST 5:18 PM MST
Nautical Twilight 6:22 AM MST 5:52 PM MST
Astronomical Twilight 5:49 AM MST 6:25 PM MST
Moon 10:21 AM MST (12/29) 10:27 PM MST (12/29)
Length of Visible Light 10h 22m
Length of Day
9h 21m
Waxing Crescent, 27% of the Moon is Illuminated
Dec 29
Waxing Crescent
Dec 31
First Quarter
Jan 9
Full
Jan 16
Last Quarter
Jan 23
New

Hourly Weather History & Observations

Time (MST) Temp. Windchill Dew Point Humidity Pressure Visibility Wind Dir Wind Speed Gust Speed Precip Events Conditions
12:02 AM 35.6 °F 25.9 °F 14.0 °F 41% 30.19 in 10.0 mi WSW 16.1 mph - N/A   Overcast
12:22 AM 35.6 °F 27.1 °F 14.0 °F 41% 30.18 in 10.0 mi West 12.7 mph - N/A   Overcast
12:42 AM 33.8 °F 23.2 °F 14.0 °F 44% 30.18 in 10.0 mi WSW 17.3 mph - N/A   Overcast
1:02 AM 33.8 °F 23.9 °F 14.0 °F 44% 30.17 in 10.0 mi West 15.0 mph - N/A   Scattered Clouds
1:22 AM 33.8 °F 24.8 °F 15.8 °F 48% 30.16 in 10.0 mi WSW 12.7 mph - N/A   Clear
1:42 AM 32.0 °F 23.6 °F 14.0 °F 48% 30.16 in 10.0 mi West 10.4 mph - N/A   Scattered Clouds
2:02 AM 33.8 °F 26.4 °F 15.8 °F 48% 30.16 in 10.0 mi West 9.2 mph - N/A   Mostly Cloudy
2:22 AM 33.8 °F 25.8 °F 15.8 °F 48% 30.16 in 10.0 mi West 10.4 mph - N/A   Overcast
2:42 AM 33.8 °F 24.8 °F 15.8 °F 48% 30.15 in 10.0 mi West 12.7 mph - N/A   Mostly Cloudy
3:02 AM 33.8 °F 25.3 °F 15.8 °F 48% 30.14 in 10.0 mi West 11.5 mph - N/A   Overcast
3:22 AM 35.6 °F 26.2 °F 19.4 °F 52% 30.12 in 10.0 mi SW 15.0 mph 19.6 mph N/A   Overcast
3:42 AM 37.4 °F 29.8 °F 19.4 °F 48% 30.11 in 10.0 mi SSW 11.5 mph 17.3 mph N/A   Overcast
4:02 AM 35.6 °F 31.7 °F 17.6 °F 48% 30.10 in 10.0 mi NW 4.6 mph - N/A   Overcast
4:21 AM 35.6 °F 27.5 °F 17.6 °F 48% 30.10 in 10.0 mi West 11.5 mph 16.1 mph N/A   Overcast
4:42 AM 37.4 °F - 17.6 °F 45% 30.09 in 10.0 mi Calm Calm - N/A   Overcast
5:02 AM 35.6 °F 32.8 °F 17.6 °F 48% 30.08 in 10.0 mi SSW 3.5 mph - N/A   Overcast
5:22 AM 35.6 °F 30.7 °F 17.6 °F 48% 30.07 in 10.0 mi NE 5.8 mph - N/A   Overcast
5:41 AM 35.6 °F 30.7 °F 17.6 °F 48% 30.07 in 10.0 mi West 5.8 mph - N/A   Overcast
6:02 AM 35.6 °F 30.7 °F 19.4 °F 52% 30.07 in 10.0 mi WSW 5.8 mph - N/A Snow Light Snow
6:22 AM 35.6 °F - 21.2 °F 56% 30.07 in 7.0 mi Calm Calm - N/A Snow Light Snow
6:42 AM 33.8 °F 29.6 °F 23.0 °F 65% 30.08 in 10.0 mi North 4.6 mph - N/A Snow Light Snow
7:02 AM 35.6 °F 30.7 °F 23.0 °F 60% 30.07 in 10.0 mi West 5.8 mph - N/A   Overcast
7:22 AM 35.6 °F 32.8 °F 24.8 °F 65% 30.07 in 7.0 mi WNW 3.5 mph - N/A Snow Light Snow
7:41 AM 33.8 °F - 26.6 °F 75% 30.07 in 5.0 mi Calm Calm - N/A Snow Light Snow
8:22 AM 33.8 °F 27.0 °F 26.6 °F 75% 30.06 in 10.0 mi West 8.1 mph - N/A   Overcast
9:02 AM 35.6 °F 26.6 °F 24.8 °F 65% 30.02 in 10.0 mi West 13.8 mph - N/A   Mostly Cloudy
9:22 AM 37.4 °F 29.3 °F 23.0 °F 56% 30.02 in 10.0 mi West 12.7 mph 18.4 mph N/A   Overcast
9:42 AM 41.0 °F 32.5 °F 23.0 °F 49% 29.99 in 10.0 mi WSW 17.3 mph - N/A   Mostly Cloudy
10:02 AM 41.0 °F 32.2 °F 21.2 °F 45% 29.98 in 10.0 mi WSW 18.4 mph 34.5 mph N/A   Scattered Clouds
10:22 AM 41.0 °F 30.0 °F 21.2 °F 45% 29.98 in 10.0 mi WSW 28.8 mph 36.8 mph N/A   Mostly Cloudy
11:02 AM 37.4 °F 27.5 °F 28.4 °F 70% 29.99 in 10.0 mi West 18.4 mph 27.6 mph N/A   Light Drizzle
11:42 AM 42.8 °F 32.7 °F 24.8 °F 49% 29.93 in 10.0 mi WSW 27.6 mph 38.0 mph N/A   Clear
12:02 PM 46.4 °F 38.3 °F 24.8 °F 43% 29.93 in 10.0 mi WSW 23.0 mph 35.7 mph N/A   Mostly Cloudy
12:22 PM 44.6 °F 35.3 °F 23.0 °F 43% 29.91 in 10.0 mi WSW 26.5 mph 34.5 mph N/A   Mostly Cloudy
12:41 PM 46.4 °F 37.2 °F 24.8 °F 43% 29.91 in 10.0 mi West 29.9 mph 38.0 mph N/A   Scattered Clouds
1:02 PM 50.0 °F - 23.0 °F 35% 29.91 in 10.0 mi WSW 19.6 mph 32.2 mph N/A   Clear
1:22 PM 50.0 °F - 19.4 °F 30% 29.91 in 10.0 mi WNW 21.9 mph 43.7 mph N/A   Scattered Clouds
1:42 PM 50.0 °F - 17.6 °F 28% 29.92 in 10.0 mi WNW 20.7 mph 34.5 mph N/A   Mostly Cloudy
2:02 PM 50.0 °F - 19.4 °F 30% 29.93 in 10.0 mi WNW 17.3 mph 35.7 mph N/A   Mostly Cloudy
2:22 PM 46.4 °F 38.3 °F 17.6 °F 32% 29.94 in 10.0 mi WNW 23.0 mph 36.8 mph N/A   Mostly Cloudy
2:42 PM 44.6 °F 36.1 °F 12.2 °F 27% 29.94 in 10.0 mi West 21.9 mph 46.0 mph N/A   Mostly Cloudy
3:02 PM 44.6 °F 35.1 °F 12.2 °F 27% 29.96 in 10.0 mi West 27.6 mph 42.6 mph N/A   Scattered Clouds
3:22 PM 46.4 °F 38.7 °F 12.2 °F 25% 29.96 in 10.0 mi WNW 20.7 mph 38.0 mph N/A   Scattered Clouds
3:42 PM 42.8 °F 34.5 °F 12.2 °F 29% 29.96 in 10.0 mi West 18.4 mph 31.1 mph N/A   Clear
4:01 PM 42.8 °F 33.1 °F 12.2 °F 29% 29.96 in 10.0 mi West 25.3 mph 36.8 mph N/A   Clear
4:22 PM 41.0 °F 33.5 °F 10.4 °F 29% 29.97 in 10.0 mi West 13.8 mph 29.9 mph N/A   Clear
5:01 PM 41.0 °F 33.9 °F 12.2 °F 31% 30.00 in 10.0 mi WNW 12.7 mph 24.2 mph N/A   Clear
5:22 PM 41.0 °F 33.5 °F 12.2 °F 31% 30.01 in 10.0 mi NW 13.8 mph 25.3 mph N/A   Clear
5:42 PM 39.2 °F 29.6 °F 14.0 °F 36% 30.02 in 10.0 mi WNW 19.6 mph 26.5 mph N/A   Clear
6:02 PM 37.4 °F 28.5 °F 12.2 °F 36% 30.02 in 10.0 mi WNW 15.0 mph 23.0 mph N/A   Clear
6:22 PM 37.4 °F 28.9 °F 10.4 °F 33% 30.04 in 10.0 mi WNW 13.8 mph 23.0 mph N/A   Clear
6:42 PM 37.4 °F 30.8 °F 10.4 °F 33% 30.06 in 10.0 mi NNW 9.2 mph - N/A   Clear
7:02 PM 37.4 °F 33.8 °F 10.4 °F 33% 30.08 in 10.0 mi NNW 4.6 mph - N/A   Clear
7:21 PM 35.6 °F 29.9 °F 12.2 °F 38% 30.09 in 10.0 mi NW 6.9 mph - N/A   Clear
7:41 PM 35.6 °F 32.8 °F 14.0 °F 41% 30.10 in 10.0 mi North 3.5 mph - N/A   Clear
8:02 PM 33.8 °F 27.0 °F 14.0 °F 44% 30.11 in 10.0 mi West 8.1 mph - N/A   Clear
8:42 PM 33.8 °F 26.4 °F 17.6 °F 52% 30.11 in 10.0 mi WSW 9.2 mph - N/A   Clear
9:02 PM 33.8 °F 27.7 °F 15.8 °F 48% 30.11 in 10.0 mi SW 6.9 mph - N/A   Clear
9:42 PM 32.0 °F 25.6 °F 15.8 °F 51% 30.13 in 10.0 mi WSW 6.9 mph - N/A   Clear
10:02 PM 30.2 °F 22.6 °F 15.8 °F 55% 30.14 in 10.0 mi West 8.1 mph - N/A   Clear
10:22 PM 32.0 °F 24.2 °F 17.6 °F 55% 30.14 in 10.0 mi West 9.2 mph - N/A   Clear
10:42 PM 32.0 °F 24.2 °F 17.6 °F 55% 30.13 in 10.0 mi West 9.2 mph - N/A   Clear
11:02 PM 30.2 °F 23.4 °F 15.8 °F 55% 30.12 in 10.0 mi West 6.9 mph - N/A   Clear
11:42 PM 30.2 °F - 15.8 °F 55% 30.13 in 10.0 mi Calm Calm - N/A   Clear